Weather History for KHWV - April, 2013

Change the Weather History Date:

Sunday, April 14, 2013

  Actual Average (KISP) Record (KISP)
Temperature  
Mean Temperature 50 °F 49 °F  
Max Temperature 57 °F 57 °F 73 °F (2002)
Min Temperature 42 °F 40 °F 28 °F (2000)
Degree Days  
Heating Degree Days 16 16  
Month to date heating degree days 259  
Since 1 July heating degree days 4951  
Cooling Degree Days 0 0  
Month to date cooling degree days 0  
Year to date cooling degree days 0  
Moisture  
Dew Point 34 °F    
Average Humidity 58    
Maximum Humidity 93    
Minimum Humidity 31    
Precipitation  
Precipitation 0.00 in 0.15 in 0.69 in (1984)
Month to date precipitation 2.13  
Year to date precipitation 13.47  
Snow  
Snow 0.00 in 0.00 in - ()
Month to date snowfall 0.4  
Since 1 July snowfall 24.6  
Snow Depth -    
Sea Level Pressure  
Sea Level Pressure 30.08 in    
Wind  
Wind Speed 8 mph (WNW)    
Max Wind Speed 23 mph    
Max Gust Speed 29 mph    
Visibility 10 miles    
Events      
T = Trace of Precipitation, MM = Missing Value Source: NWS Daily Summary

Daily Weather History Graph

Daily Weather History Graph

Search for Another Location

Airport or City:

Trip Planner

Search our weather history database for the weather conditions in past years. The results will help you decide how hot, cold, wet, or windy it might be!

Date:

Astronomy

Apr. 14, 2013 Rise Set
Actual Time 6:13 AM EDT 7:30 PM EDT
Civil Twilight 5:45 AM EDT 7:58 PM EDT
Nautical Twilight 5:11 AM EDT 8:32 PM EDT
Astronomical Twilight 4:35 AM EDT 9:08 PM EDT
Moon 8:47 AM EDT (4/14) 11:42 PM EDT (4/14)
Length of Visible Light 14h 13m
Length of Day
13h 16m
Waxing Crescent, 17% of the Moon is Illuminated
Apr 14
Waxing Crescent
Apr 18
First Quarter
Apr 25
Full
May 2
Last Quarter
May 9
New

Hourly Weather History & Observations

Time (EDT) Temp. Windchill Dew Point Humidity Pressure Visibility Wind Dir Wind Speed Gust Speed Precip Events Conditions
12:56 AM 46.9 °F - 42.1 °F 83% 30.00 in 10.0 mi SW 4.6 mph - N/A   Overcast
1:56 AM 46.9 °F - 43.0 °F 86% 30.00 in 10.0 mi WSW 4.6 mph - N/A   Overcast
2:56 AM 46.9 °F - 43.0 °F 86% 29.99 in 10.0 mi SW 4.6 mph - N/A   Overcast
3:56 AM 46.0 °F 44.8 °F 43.0 °F 89% 29.99 in 10.0 mi SW 3.5 mph - 0.00 in   Overcast
4:56 AM 46.0 °F - 44.1 °F 93% 29.99 in 9.0 mi Calm Calm - 0.00 in   Overcast
5:56 AM 46.9 °F - 45.0 °F 93% 30.00 in 9.0 mi Calm Calm - 0.00 in   Overcast
6:56 AM 46.9 °F - 44.1 °F 90% 30.01 in 10.0 mi SW 3.5 mph - N/A   Overcast
7:56 AM 48.9 °F - 44.1 °F 83% 30.04 in 10.0 mi WSW 3.5 mph - N/A   Overcast
8:56 AM 54.0 °F - 39.0 °F 57% 30.03 in 10.0 mi SW 6.9 mph - N/A   Partly Cloudy
10:56 AM 55.0 °F - 34.0 °F 45% 30.03 in 10.0 mi NW 18.4 mph - N/A   Mostly Cloudy
11:56 AM 55.9 °F - 32.0 °F 40% 30.05 in 10.0 mi WNW 17.3 mph 26.5 mph N/A   Scattered Clouds
12:56 PM 55.9 °F - 30.0 °F 37% 30.05 in 10.0 mi NW 20.7 mph 26.5 mph N/A   Clear
1:56 PM 55.9 °F - 28.0 °F 34% 30.06 in 10.0 mi NW 19.6 mph 28.8 mph N/A   Clear
2:56 PM 55.0 °F - 25.0 °F 31% 30.06 in 10.0 mi NW 19.6 mph 28.8 mph N/A   Clear
3:56 PM 55.0 °F - 25.0 °F 31% 30.07 in 10.0 mi WNW 23.0 mph 28.8 mph N/A   Clear
4:56 PM 55.0 °F - 25.0 °F 31% 30.08 in 10.0 mi NW 20.7 mph 26.5 mph N/A   Clear
5:56 PM 54.0 °F - 25.0 °F 33% 30.11 in 10.0 mi NNW 15.0 mph 23.0 mph N/A   Clear
6:56 PM 52.0 °F - 25.0 °F 35% 30.14 in 10.0 mi NNW 9.2 mph - N/A   Clear
7:56 PM 48.9 °F - 27.0 °F 43% 30.17 in 10.0 mi NNW 8.1 mph - N/A   Clear
8:56 PM 46.9 °F - 28.0 °F 48% 30.20 in 10.0 mi North 6.9 mph - N/A   Clear
9:56 PM 45.0 °F 43.5 °F 27.0 °F 49% 30.22 in 10.0 mi NNE 3.5 mph - N/A   Clear
10:56 PM 44.1 °F 42.5 °F 27.0 °F 51% 30.22 in 10.0 mi NNE 3.5 mph - N/A   Clear
11:56 PM 42.1 °F - 27.0 °F 55% 30.24 in 10.0 mi Calm Calm - N/A   Clear